LiveATC.Net - Listen to live air traffic control over the Internet!


ICAO: ENCN  IATA: KRS   Airport: Kristiansand Airport - Kjevik
City: Kristiansand
Country: Norway   Continent: Europe
ENCN METAR Weather: ENCN 081320Z 21015KT 9000 BKN006 06/05 Q1029
ENCN ADS-B Flight Tracking  (ADSBExchange)
ENCN Flight Activity (FlightAware)

ENCN Tower/Approach
Feed Status: UP   Listeners: 0
Listen in your browser - HTML5 player (in browser, HTML5)
Click here to listen with your own player (launches your MP3 player)
Archive Access: ENCN Tower/Approach
FacilityFrequency
Kjevik Tower118.100
Kjevik Tower/Approach119.950

NOTICE

Unauthorized use prohibited. See LiveATC.net Terms of Service


Airport/ARTCC Code
Frequency Search
(e.g., 124.400, 128.75)
Site-wide search
 


Browse Feeds
Top 50 Feeds
HF Oceanic Feeds
Coverage Map
Bad Weather Areas

LiveATC FAQ
Offer LiveATC feed
Contact LiveATC.net
Press Inquiries

LiveATC on iPhone
LiveATC on Android

LiveATC Mobile
(Mobile browser)

ATC Audio Archives
Interesting Recordings

LiveATC Forums


Home Page
About LiveATC.net


Terms of Use
Privacy Policy

AIRMETs/SIGMETs

FAA Airport Status
NAS Status
Arrival Demand


Server Software By:
Icecast.org
Liquidsoap